パンスターズ彗星

C/2016 R2 ( PanSTARRS )

English version
Home page
Updated on January 20, 2020

---------------------------------------------------------------------

・ プロフィール

発見日 2016年9月7日
発見光度 19.1等
発見者 Pan-STARRS 1 telescope (Haleakala)

・ 写真集

・ 軌道要素

Epoch 2018 May 2.0 TT = JDT 2458240.5
T 2018 May  9.58370 TT                                  Williams
q   2.6023720            (2000.0)            P               Q
z  +0.0013990      Peri.   33.19217     -0.14726345     -0.52443185
 +/-0.0000002      Node    80.56876     +0.61562595     -0.71221363
e   0.9963594      Incl.   58.22382     +0.77415642     +0.46660795
From 4000 observations 2016 Aug. 30-2020 Jan. 5, mean residual 0".5.

・ 星図

・ 光度変化

        m1 = 3.5 + 5 logΔ + 13.0 log r(t + 40)

---------------------------------------------------------------------

軌道要素はM.P.E.C. 2020-A105に掲載されたものです。
星図はステラナビゲータ Ver.10 (アストロアーツ) で作成したものです。
光度グラフはComet for Windowsで作成したものです。

---------------------------------------------------------------------

Copyright(C) Seiichi Yoshida (comet@aerith.net). All rights reserved.